�������l�o���
Date,Time,MP-1(��Sv/h),MP-2(��Sv/h),MP-3(��Sv/h),MP-4(��Sv/h),MP-5(��Sv/h),MP-6(��Sv/h),MP-7(��Sv/h),MP-8(��Sv/h),����,����(m/s),���J
2024/01/04,00:00,0.499,0.752,0.477,0.953,0.678,0.310,0.556,0.520,�k�k��,7.1,�L
2024/01/04,00:10,0.500,0.751,0.475,0.953,0.679,0.311,0.553,0.520,�k�k��,6.9,�L
2024/01/04,00:20,0.497,0.752,0.476,0.951,0.679,0.310,0.554,0.521,�k�k��,6.4,�L
2024/01/04,00:30,0.500,0.753,0.476,0.953,0.678,0.312,0.554,0.519,�k�k��,5.8,�L
2024/01/04,00:40,0.498,0.752,0.476,0.954,0.680,0.311,0.556,0.520,�k�k��,6.5,�L
2024/01/04,00:50,0.498,0.751,0.476,0.953,0.679,0.314,0.556,0.520,�k�k��,5.9,�L
2024/01/04,01:00,0.499,0.752,0.477,0.953,0.679,0.312,0.555,0.521,�k�k��,6.6,�L
2024/01/04,01:10,0.500,0.750,0.478,0.952,0.679,0.311,0.556,0.520,�k�k��,6.3,�L
2024/01/04,01:20,0.499,0.753,0.475,0.954,0.676,0.311,0.557,0.520,�k�k��,5.8,��
2024/01/04,01:30,0.498,0.751,0.476,0.952,0.678,0.313,0.554,0.520,�k��,6.2,��
2024/01/04,01:40,0.499,0.751,0.475,0.951,0.677,0.312,0.557,0.520,�k�k��,6.2,��
2024/01/04,01:50,0.498,0.751,0.476,0.951,0.675,0.310,0.556,0.521,�k�k��,6.9,�L
2024/01/04,02:00,0.498,0.753,0.476,0.951,0.678,0.311,0.557,0.520,�k�k��,7.3,�L
2024/01/04,02:10,0.498,0.752,0.474,0.953,0.676,0.311,0.556,0.519,�k��,6.6,��
2024/01/04,02:20,0.498,0.750,0.475,0.954,0.677,0.312,0.555,0.520,�k�k��,7.4,��
2024/01/04,02:30,0.497,0.753,0.475,0.952,0.676,0.311,0.555,0.520,�k�k��,7.2,��
2024/01/04,02:40,0.499,0.752,0.476,0.951,0.677,0.310,0.556,0.519,�k�k��,7.6,��
2024/01/04,02:50,0.498,0.751,0.474,0.952,0.677,0.310,0.556,0.521,�k�k��,8.5,��
2024/01/04,03:00,0.498,0.753,0.475,0.953,0.677,0.310,0.555,0.520,�k�k��,8.3,��
2024/01/04,03:10,0.498,0.753,0.475,0.954,0.676,0.310,0.558,0.520,�k��,8.1,��
2024/01/04,03:20,0.498,0.752,0.476,0.953,0.677,0.310,0.556,0.522,�k�k��,7.5,��
2024/01/04,03:30,0.500,0.751,0.475,0.952,0.679,0.310,0.555,0.520,�k�k��,7.6,��
2024/01/04,03:40,0.500,0.752,0.476,0.953,0.676,0.310,0.556,0.521,�k�k��,6.6,��
2024/01/04,03:50,0.501,0.753,0.475,0.954,0.677,0.312,0.557,0.522,�k�k��,7.0,��
2024/01/04,04:00,0.499,0.752,0.477,0.952,0.679,0.312,0.557,0.520,�k�k��,6.6,��
2024/01/04,04:10,0.499,0.752,0.476,0.953,0.678,0.310,0.555,0.521,�k�k��,6.5,��
2024/01/04,04:20,0.500,0.755,0.475,0.952,0.678,0.311,0.557,0.520,�k�k��,7.6,��
2024/01/04,04:30,0.499,0.754,0.474,0.951,0.678,0.310,0.558,0.522,�k�k��,8.2,��
2024/01/04,04:40,0.500,0.752,0.475,0.952,0.677,0.310,0.558,0.520,�k�k��,8.7,��
2024/01/04,04:50,0.500,0.753,0.475,0.952,0.681,0.310,0.554,0.521,�k�k��,7.3,��
2024/01/04,05:00,0.500,0.756,0.474,0.953,0.678,0.310,0.555,0.520,�k�k��,6.3,��
2024/01/04,05:10,0.500,0.753,0.477,0.953,0.679,0.311,0.554,0.521,�k�k��,7.4,��
2024/01/04,05:20,0.501,0.753,0.475,0.953,0.678,0.312,0.556,0.520,�k�k��,7.2,��
2024/01/04,05:30,0.501,0.753,0.476,0.956,0.680,0.310,0.554,0.520,�k�k��,7.3,��
2024/01/04,05:40,0.500,0.754,0.475,0.954,0.679,0.310,0.556,0.520,�k�k��,7.6,��
2024/01/04,05:50,0.500,0.753,0.474,0.955,0.678,0.310,0.556,0.520,�k�k��,8.3,��
2024/01/04,06:00,0.501,0.752,0.476,0.957,0.679,0.310,0.556,0.520,�k�k��,8.2,��
2024/01/04,06:10,0.500,0.754,0.475,0.954,0.680,0.310,0.555,0.521,�k�k��,9.4,�L
2024/01/04,06:20,0.499,0.756,0.475,0.954,0.680,0.310,0.556,0.521,�k�k��,9.2,�L
2024/01/04,06:30,0.500,0.754,0.476,0.955,0.680,0.311,0.556,0.521,�k�k��,7.6,�L
2024/01/04,06:40,0.499,0.754,0.476,0.956,0.681,0.310,0.555,0.520,�k�k��,7.6,�L
2024/01/04,06:50,0.500,0.752,0.476,0.954,0.680,0.312,0.555,0.520,�k�k��,9.3,�L
2024/01/04,07:00,0.500,0.755,0.476,0.954,0.679,0.311,0.554,0.522,�k�k��,9.9,�L
2024/01/04,07:10,0.500,0.754,0.476,0.956,0.680,0.310,0.557,0.520,�k�k��,9.0,�L
2024/01/04,07:20,0.500,0.755,0.475,0.957,0.681,0.310,0.557,0.520,�k�k��,7.6,�L
2024/01/04,07:30,0.500,0.752,0.477,0.956,0.680,0.311,0.556,0.522,�k��,7.3,��
2024/01/04,07:40,0.502,0.754,0.477,0.956,0.680,0.310,0.556,0.519,�k�k��,8.4,�L
2024/01/04,07:50,0.501,0.756,0.477,0.955,0.681,0.311,0.557,0.521,�k�k��,8.6,�L
2024/01/04,08:00,0.501,0.755,0.476,0.954,0.681,0.310,0.557,0.522,�k�k��,7.5,�L
2024/01/04,08:10,0.502,0.754,0.477,0.955,0.681,0.310,0.558,0.522,�k�k��,7.1,�L
2024/01/04,08:20,0.502,0.754,0.476,0.957,0.681,0.310,0.556,0.520,�k�k��,6.2,��
2024/01/04,08:30,0.501,0.753,0.477,0.956,0.679,0.310,0.557,0.522,�k�k��,7.5,��
2024/01/04,08:40,0.502,0.755,0.478,0.957,0.681,0.310,0.557,0.520,�k,7.1,��
2024/01/04,08:50,0.502,0.756,0.476,0.956,0.682,0.309,0.557,0.521,�k�k��,9.2,��
2024/01/04,09:00,0.502,0.755,0.477,0.955,0.680,0.311,0.557,0.520,�k�k��,8.9,��
2024/01/04,09:10,0.501,0.756,0.477,0.955,0.682,0.311,0.558,0.522,�k�k��,8.6,��
2024/01/04,09:20,0.501,0.755,0.476,0.953,0.682,0.311,0.557,0.522,�k�k��,8.0,��
2024/01/04,09:30,0.502,0.756,0.477,0.957,0.683,0.310,0.556,0.521,�k�k��,6.4,��
2024/01/04,09:40,0.502,0.756,0.477,0.956,0.682,0.311,0.555,0.523,�k�k��,6.4,��
2024/01/04,09:50,0.502,0.757,0.477,0.954,0.682,0.311,0.556,0.521,�k�k��,6.5,��
2024/01/04,10:00,0.502,0.759,0.477,0.957,0.680,0.311,0.557,0.520,�k�k��,5.5,��
2024/01/04,10:10,0.502,0.757,0.477,0.957,0.682,0.311,0.556,0.520,�k,4.9,��
2024/01/04,10:20,0.502,0.758,0.476,0.958,0.682,0.312,0.556,0.520,�k,4.8,��
2024/01/04,10:30,0.501,0.758,0.475,0.955,0.682,0.310,0.556,0.521,�k�k��,10.5,��
2024/01/04,10:40,0.502,0.758,0.477,0.957,0.682,0.311,0.555,0.521,�k�k��,11.0,��
2024/01/04,10:50,0.502,0.756,0.478,0.957,0.680,0.312,0.556,0.521,�k�k��,10.6,��
2024/01/04,11:00,0.501,0.757,0.477,0.957,0.681,0.310,0.556,0.522,�k�k��,9.7,��
2024/01/04,11:10,0.501,0.758,0.478,0.957,0.683,0.311,0.556,0.522,�k�k��,11.3,��
2024/01/04,11:20,0.502,0.759,0.478,0.957,0.685,0.310,0.556,0.522,�k�k��,11.3,��
2024/01/04,11:30,0.501,0.756,0.478,0.958,0.683,0.312,0.556,0.523,�k�k��,10.6,��
2024/01/04,11:40,0.503,0.758,0.478,0.958,0.685,0.311,0.557,0.521,�k�k��,10.8,��
2024/01/04,11:50,0.501,0.757,0.478,0.957,0.686,0.311,0.557,0.521,�k�k��,10.5,��
2024/01/04,12:00,0.502,0.758,0.478,0.960,0.685,0.312,0.555,0.521,�k��,11.8,��
2024/01/04,12:10,0.501,0.757,0.480,0.959,0.685,0.312,0.557,0.522,�k�k��,9.2,��
2024/01/04,12:20,0.502,0.757,0.480,0.960,0.685,0.312,0.557,0.523,�k�k��,11.0,��
2024/01/04,12:30,0.504,0.758,0.479,0.960,0.686,0.311,0.557,0.523,�k�k��,10.2,��
2024/01/04,12:40,0.504,0.758,0.480,0.960,0.685,0.312,0.558,0.522,�k��,8.8,��
2024/01/04,12:50,0.504,0.760,0.479,0.960,0.687,0.311,0.557,0.522,�k��,9.4,��
2024/01/04,13:00,0.505,0.761,0.481,0.959,0.687,0.312,0.557,0.523,�k��,10.5,��
2024/01/04,13:10,0.503,0.761,0.479,0.962,0.686,0.311,0.556,0.522,�k�k��,9.6,��
2024/01/04,13:20,0.503,0.758,0.480,0.960,0.686,0.312,0.557,0.521,�k�k��,10.5,��
2024/01/04,13:30,0.504,0.760,0.481,0.961,0.686,0.311,0.556,0.521,�k��,11.3,��
2024/01/04,13:40,0.503,0.758,0.480,0.962,0.687,0.312,0.558,0.520,�k�k��,9.4,��
2024/01/04,13:50,0.504,0.760,0.481,0.962,0.686,0.312,0.557,0.521,�k��,9.2,��
2024/01/04,14:00,0.506,0.760,0.481,0.962,0.687,0.312,0.558,0.522,�k��,7.8,��
2024/01/04,14:10,0.505,0.761,0.481,0.962,0.687,0.312,0.558,0.522,�k��,10.2,��
2024/01/04,14:20,0.505,0.760,0.482,0.960,0.687,0.311,0.557,0.522,�k�k��,10.7,��
2024/01/04,14:30,0.503,0.760,0.481,0.960,0.688,0.312,0.556,0.521,�k��,12.0,��
2024/01/04,14:40,0.504,0.759,0.480,0.959,0.687,0.312,0.556,0.521,�k�k��,9.7,��
2024/01/04,14:50,0.503,0.760,0.482,0.962,0.690,0.312,0.555,0.523,�k��,6.1,��
2024/01/04,15:00,0.505,0.762,0.480,0.961,0.688,0.313,0.557,0.525,�k��,8.1,��
2024/01/04,15:10,0.506,0.761,0.481,0.962,0.688,0.314,0.556,0.523,�k��,10.2,��
2024/01/04,15:20,0.504,0.763,0.481,0.960,0.686,0.314,0.556,0.524,�k��,10.2,��
2024/01/04,15:30,0.504,0.763,0.481,0.961,0.688,0.311,0.557,0.525,�k��,8.6,��
2024/01/04,15:40,0.504,0.763,0.481,0.962,0.687,0.311,0.557,0.526,�k��,10.5,��
2024/01/04,15:50,0.506,0.765,0.482,0.963,0.688,0.312,0.557,0.525,�k��,7.9,��
2024/01/04,16:00,0.506,0.762,0.481,0.961,0.687,0.311,0.558,0.523,�k��,7.1,��
2024/01/04,16:10,0.506,0.765,0.481,0.962,0.686,0.311,0.558,0.524,�k��,8.9,��
2024/01/04,16:20,0.507,0.764,0.481,0.961,0.686,0.313,0.557,0.523,�k��,8.4,��
2024/01/04,16:30,0.504,0.764,0.482,0.962,0.687,0.310,0.558,0.526,�k��,8.2,��
2024/01/04,16:40,0.506,0.765,0.482,0.963,0.689,0.311,0.557,0.524,�k��,6.3,��
2024/01/04,16:50,0.505,0.762,0.480,0.961,0.688,0.311,0.558,0.524,�k��,7.7,��
2024/01/04,17:00,0.507,0.763,0.481,0.961,0.686,0.311,0.559,0.524,�k��,6.6,��
2024/01/04,17:10,0.505,0.763,0.481,0.962,0.687,0.312,0.559,0.526,�k��,5.8,��
2024/01/04,17:20,0.505,0.762,0.480,0.964,0.689,0.312,0.559,0.524,�k��,6.1,��
2024/01/04,17:30,0.505,0.763,0.481,0.963,0.688,0.311,0.559,0.524,�k��,6.4,��
2024/01/04,17:40,0.505,0.764,0.481,0.958,0.685,0.311,0.558,0.522,�k��,7.1,��
2024/01/04,17:50,0.505,0.764,0.481,0.962,0.688,0.313,0.557,0.523,�k��,7.3,��
2024/01/04,18:00,0.505,0.764,0.481,0.963,0.688,0.310,0.557,0.524,�k��,8.2,��
2024/01/04,18:10,0.505,0.764,0.480,0.962,0.689,0.310,0.558,0.523,�k��,10.3,��
2024/01/04,18:20,0.505,0.764,0.481,0.962,0.689,0.311,0.557,0.523,�k��,9.5,��
2024/01/04,18:30,0.504,0.763,0.479,0.961,0.688,0.312,0.559,0.523,�k��,8.3,��
2024/01/04,18:40,0.504,0.763,0.481,0.963,0.687,0.311,0.560,0.522,�k��,7.6,��
2024/01/04,18:50,0.506,0.762,0.482,0.963,0.688,0.312,0.559,0.523,�k�k��,4.9,��
2024/01/04,19:00,0.505,0.763,0.482,0.963,0.688,0.309,0.559,0.523,�k��,6.6,��
2024/01/04,19:10,0.503,0.764,0.481,0.962,0.687,0.311,0.558,0.523,�k�k��,8.7,��
2024/01/04,19:20,0.504,0.762,0.481,0.963,0.688,0.310,0.557,0.523,�k�k��,7.8,��
2024/01/04,19:30,0.505,0.762,0.481,0.962,0.688,0.311,0.556,0.524,�k�k��,6.3,��
2024/01/04,19:40,0.505,0.764,0.482,0.961,0.688,0.311,0.558,0.522,�k�k��,6.4,��
2024/01/04,19:50,0.505,0.764,0.481,0.962,0.688,0.310,0.558,0.522,�k�k��,4.0,��
2024/01/04,20:00,0.503,0.762,0.482,0.963,0.687,0.310,0.557,0.522,�k�k��,3.6,��
2024/01/04,20:10,0.506,0.764,0.479,0.963,0.686,0.310,0.556,0.523,�k�k��,5.1,��
2024/01/04,20:20,0.504,0.764,0.479,0.962,0.686,0.310,0.557,0.522,�k�k��,5.4,��
2024/01/04,20:30,0.504,0.761,0.479,0.961,0.687,0.310,0.557,0.521,�k�k��,5.6,��
2024/01/04,20:40,0.504,0.763,0.479,0.965,0.688,0.309,0.556,0.521,�k�k��,4.1,��
2024/01/04,20:50,0.505,0.761,0.480,0.962,0.687,0.311,0.556,0.522,�k��,4.7,��
2024/01/04,21:00,0.503,0.764,0.481,0.963,0.687,0.310,0.556,0.522,�k��,4.8,��
2024/01/04,21:10,0.504,0.765,0.481,0.963,0.686,0.310,0.556,0.522,�k�k��,4.9,��
2024/01/04,21:20,0.504,0.763,0.480,0.964,0.684,0.310,0.557,0.521,�k�k��,4.6,��
2024/01/04,21:30,0.503,0.762,0.480,0.962,0.688,0.310,0.556,0.522,�k��,4.1,��
2024/01/04,21:40,0.505,0.760,0.480,0.961,0.687,0.308,0.556,0.522,�k��,4.0,��
2024/01/04,21:50,0.505,0.763,0.479,0.961,0.687,0.309,0.555,0.521,�k��,4.9,��
2024/01/04,22:00,0.505,0.762,0.479,0.960,0.688,0.310,0.555,0.521,�k�k��,4.5,��
2024/01/04,22:10,0.505,0.762,0.480,0.962,0.688,0.310,0.555,0.522,�k�k��,4.4,��
2024/01/04,22:20,0.503,0.763,0.479,0.962,0.688,0.310,0.555,0.522,�k��,3.3,��
2024/01/04,22:30,0.504,0.764,0.480,0.961,0.687,0.310,0.555,0.519,�k��,3.3,��
2024/01/04,22:40,0.504,0.762,0.478,0.961,0.686,0.310,0.554,0.521,���k��,2.8,��
2024/01/04,22:50,0.503,0.760,0.479,0.963,0.688,0.311,0.555,0.520,���k��,3.0,��
2024/01/04,23:00,0.504,0.761,0.479,0.964,0.688,0.308,0.556,0.520,���k��,3.4,��
2024/01/04,23:10,0.503,0.763,0.478,0.962,0.688,0.311,0.555,0.522,���k��,3.5,��
2024/01/04,23:20,0.505,0.762,0.479,0.964,0.687,0.308,0.555,0.521,���k��,3.6,��
2024/01/04,23:30,0.504,0.763,0.481,0.963,0.687,0.309,0.556,0.520,��,3.4,��
2024/01/04,23:40,0.504,0.764,0.478,0.961,0.685,0.308,0.555,0.522,��,3.9,��
2024/01/04,23:50,0.503,0.763,0.479,0.960,0.686,0.308,0.556,0.519,�k��,3.9,��
